Red Bluff, CA

3:00 AM PDT on September 25, 2016 (GMT -0700)
Red Bluff Municipal

Weather History for KRBL - April, 2013

Change the Weather History Date:

Friday, April 12, 2013

  Actual Average Record
Temperature  
Mean Temperature 66 °F -  
Max Temperature 82 °F 72 °F 91 °F (1951)
Min Temperature 50 °F 47 °F 35 °F (1948)
Cooling Degree Days 1    
Growing Degree Days 16 (Base 50)    
Moisture  
Dew Point 35 °F    
Average Humidity 32    
Maximum Humidity 54    
Minimum Humidity 7    
Precipitation  
Precipitation 0.00 in - - ()
Sea Level Pressure  
Sea Level Pressure 29.83 in    
Wind  
Wind Speed 8 mph (NW)    
Max Wind Speed 14 mph    
Max Gust Speed -    
Visibility 10 miles    
Events      
Averages and records for this station are not official NWS values.
T = Trace of Precipitation, MM = Missing Value Source: NWS Daily Summary

Daily Weather History Graph

Daily Weather History Graph

Search for Another Location

Airport or City:

Trip Planner

Search our weather history database for the weather conditions in past years. The results will help you decide how hot, cold, wet, or windy it might be!

Date:

Astronomy

Apr. 12, 2013 Rise Set
Actual Time 6:35 AM PDT 7:45 PM PDT
Civil Twilight 6:07 AM PDT 8:13 PM PDT
Nautical Twilight 5:33 AM PDT 8:46 PM PDT
Astronomical Twilight 4:58 AM PDT 9:21 PM PDT
Moon 7:48 AM PDT (4/12) 10:20 PM PDT (4/12)
Length of Visible Light 14h 05m
Length of Day
13h 10m
Waxing Crescent, 6% of the Moon is Illuminated
Apr 12
Waxing Crescent
Apr 18
First Quarter
Apr 25
Full
May 2
Last Quarter
May 9
New

Hourly Weather History & Observations

Time (PDT) Temp. Dew Point Humidity Pressure Visibility Wind Dir Wind Speed Gust Speed Precip Events Conditions
12:54 AM 61.0 °F 34.0 °F 36% 29.87 in 10.0 mi NW 9.2 mph - N/A   Clear
1:54 AM 59.0 °F 34.0 °F 39% 29.87 in 10.0 mi NW 8.1 mph - N/A   Clear
2:54 AM 55.9 °F 34.0 °F 44% 29.86 in 10.0 mi NNW 8.1 mph - N/A   Clear
3:54 AM 57.0 °F 33.1 °F 40% 29.85 in 10.0 mi NNW 8.1 mph - N/A   Clear
4:54 AM 55.9 °F 34.0 °F 44% 29.86 in 10.0 mi NNW 5.8 mph - N/A   Clear
5:54 AM 54.0 °F 34.0 °F 47% 29.86 in 10.0 mi NNW 6.9 mph - N/A   Clear
6:54 AM 52.0 °F 35.1 °F 53% 29.88 in 10.0 mi North 8.1 mph - N/A   Clear
7:54 AM 55.9 °F 37.9 °F 51% 29.90 in 10.0 mi NNW 6.9 mph - N/A   Clear
8:54 AM 64.9 °F 36.0 °F 34% 29.91 in 10.0 mi North 10.4 mph - N/A   Clear
9:54 AM 69.1 °F 34.0 °F 27% 29.89 in 10.0 mi NNW 13.8 mph - N/A   Clear
10:54 AM 73.0 °F 32.0 °F 22% 29.88 in 10.0 mi North 12.7 mph - N/A   Clear
11:54 AM 75.0 °F 33.1 °F 22% 29.88 in 10.0 mi North 11.5 mph - N/A   Clear
12:54 PM 79.0 °F 30.0 °F 17% 29.84 in 10.0 mi North 8.1 mph - N/A   Clear
1:54 PM 80.1 °F 30.0 °F 16% 29.82 in 10.0 mi NNW 5.8 mph - N/A   Clear
2:54 PM 82.0 °F 27.0 °F 13% 29.81 in 10.0 mi Variable 3.5 mph - N/A   Clear
3:54 PM 82.0 °F 23.0 °F 11% 29.78 in 10.0 mi SE 5.8 mph - N/A   Clear
4:54 PM 82.0 °F 28.0 °F 14% 29.76 in 10.0 mi South 4.6 mph - N/A   Clear
5:54 PM 81.0 °F 32.0 °F 17% 29.75 in 10.0 mi South 6.9 mph - N/A   Clear
6:54 PM 73.9 °F 45.0 °F 35% 29.75 in 10.0 mi South 5.8 mph - N/A   Clear
7:54 PM 69.1 °F 45.0 °F 42% 29.76 in 10.0 mi SSW 3.5 mph - N/A   Clear
8:54 PM 64.0 °F 46.9 °F 54% 29.78 in 10.0 mi WNW 5.8 mph - N/A   Clear
9:54 PM 63.0 °F 44.1 °F 50% 29.81 in 10.0 mi WNW 5.8 mph - N/A   Clear
10:54 PM 64.9 °F 42.1 °F 43% 29.82 in 10.0 mi WSW 4.6 mph - N/A   Clear
11:54 PM 64.9 °F 42.1 °F 43% 29.83 in 10.0 mi West 6.9 mph - N/A   Clear